{"data":{"norad_id":67281,"intl_designator":"2025-313AK","name":"2025-313AK","alt_names":[],"object_type":"PAYLOAD","status":"ACTIVE","operator":null,"country":"TBD","launch_date":"2025-12-28","launch_site_code":"VOSTO","launch_vehicle":null,"mission":null,"orbit_class":"UNKNOWN","rcs_meters":null,"size_class":null,"mass_kg":null,"dimensions":null,"purposes":[],"wikipedia_slug":null,"has_3d_model":false,"image_url":null,"decayed_at":null,"tle_current":{"epoch":"2026-09-20T00:18:06.600096Z","epoch_age_seconds":145181,"freshness":"FRESH","line1":"1 67281U 25313AK  26263.01257639  .00003257  00000+0  13998-3 0  9999","line2":"2 67281  97.3799 335.9531 0012452  34.6079 325.5966 15.23301948 40389","mean_motion":15.23301948,"eccentricity":0.0012452,"inclination_deg":97.3799,"raan_deg":335.9531,"arg_perigee_deg":34.6079,"mean_anomaly_deg":325.5966,"bstar":0.00013998,"rev_number":4038,"period_min":94.531488119649,"perigee_km":487.32955591948,"apogee_km":504.44863050201,"semimajor_km":6874.0260932107,"source":"CELESTRAK","updated_at":"2026-09-21T09:00:16.546993Z"}}}